Time,TemperatureF,DewpointF,PressureIn,WindDirection,WindDirectionDegrees,WindSpeedMPH,WindSpeedGustMPH,Humidity,HourlyPrecipIn,Conditions,Clouds,dailyrainin,SoftwareType,DateUTC
2016-07-25 00:03:00,71.1,65.7,29.93,SSW,210,0.5,1.2,83,0.00,CLR,FEW,0.00,WeatherDisplay:10.37,2016-07-25 05:03:00,
2016-07-25 00:08:00,71.0,65.9,29.94,South,179,0.0,0.0,84,0.00,CLR,FEW,0.00,WeatherDisplay:10.37,2016-07-25 05:08:00,
2016-07-25 00:13:00,71.0,65.9,29.94,South,179,0.0,0.0,84,0.00,CLR,FEW,0.00,WeatherDisplay:10.37,2016-07-25 05:13:00,
2016-07-25 00:18:00,70.9,65.8,29.94,SW,230,0.0,0.0,84,0.00,CLR,FEW,0.00,WeatherDisplay:10.37,2016-07-25 05:18:00,
2016-07-25 00:23:00,70.9,65.8,29.95,WNW,282,1.4,1.4,84,0.00,CLR,FEW,0.00,WeatherDisplay:10.37,2016-07-25 05:23:00,
2016-07-25 00:28:00,70.9,65.8,29.95,North,359,1.9,3.5,84,0.00,CLR,FEW,0.00,WeatherDisplay:10.37,2016-07-25 05:28:00,
2016-07-25 00:33:00,70.9,65.8,29.95,West,281,2.2,4.6,84,0.00,CLR,FEW,0.00,WeatherDisplay:10.37,2016-07-25 05:33:00,
2016-07-25 00:38:00,71.0,65.6,29.95,WNW,292,1.4,3.9,83,0.00,CLR,FEW,0.00,WeatherDisplay:10.37,2016-07-25 05:38:00,
2016-07-25 00:43:00,71.1,65.7,29.95,West,277,1.4,4.6,83,0.00,CLR,FEW,0.00,WeatherDisplay:10.37,2016-07-25 05:43:00,
2016-07-25 00:48:00,71.1,65.7,29.95,West,278,1.0,5.8,83,0.00,CLR,FEW,0.00,WeatherDisplay:10.37,2016-07-25 05:48:00,
2016-07-25 00:53:00,71.0,65.6,29.95,WNW,301,2.4,4.6,83,0.00,CLR,FEW,0.00,WeatherDisplay:10.37,2016-07-25 05:53:00,
2016-07-25 00:58:00,71.0,65.6,29.96,NW,316,1.4,2.8,83,0.00,CLR,FEW,0.00,WeatherDisplay:10.37,2016-07-25 05:58:00,
2016-07-25 01:03:00,71.0,65.2,29.96,NW,304,3.2,3.9,82,0.00,CLR,FEW,0.00,WeatherDisplay:10.37,2016-07-25 06:03:00,
2016-07-25 01:08:00,70.9,65.1,29.96,West,281,2.9,5.8,82,0.00,CLR,FEW,0.00,WeatherDisplay:10.37,2016-07-25 06:08:00,
2016-07-25 01:13:00,70.8,65.0,29.96,West,281,1.9,2.3,82,0.00,CLR,FEW,0.00,WeatherDisplay:10.37,2016-07-25 06:13:00,
2016-07-25 01:18:00,70.8,65.0,29.96,WSW,251,2.3,3.5,82,0.00,CLR,FEW,0.00,WeatherDisplay:10.37,2016-07-25 06:18:00,
2016-07-25 01:23:00,70.9,65.1,29.96,WNW,291,2.9,3.5,82,0.00,CLR,FEW,0.00,WeatherDisplay:10.37,2016-07-25 06:23:00,
2016-07-25 01:28:00,70.7,64.9,29.96,West,277,0.8,2.3,82,0.00,CLR,FEW,0.00,WeatherDisplay:10.37,2016-07-25 06:28:00,
2016-07-25 01:33:00,70.8,65.0,29.96,SW,224,0.7,1.2,82,0.00,CLR,FEW,0.00,WeatherDisplay:10.37,2016-07-25 06:33:00,
2016-07-25 01:38:00,70.7,64.9,29.96,NNE,23,1.2,4.2,82,0.00,CLR,FEW,0.00,WeatherDisplay:10.37,2016-07-25 06:38:00,
2016-07-25 01:43:00,70.7,64.9,29.96,NNW,328,2.5,5.8,82,0.00,CLR,FEW,0.00,WeatherDisplay:10.37,2016-07-25 06:43:00,
2016-07-25 01:48:00,70.7,64.9,29.96,West,264,1.4,2.3,82,0.00,CLR,FEW,0.00,WeatherDisplay:10.37,2016-07-25 06:48:00,